Time,TemperatureF,DewpointF,PressureIn,WindDirection,WindDirectionDegrees,WindSpeedMPH,WindSpeedGustMPH,Humidity,HourlyPrecipIn,Conditions,Clouds,dailyrainin,SoftwareType,DateUTC
2011-09-16 00:03:00,58.8,49.5,29.96,SE,135,0.0,4.2,71,0.00,,,0.02,open2300-1.11,2011-09-16 06:03:00,
2011-09-16 00:18:00,58.8,49.5,29.96,NE,45,0.0,4.5,71,0.00,,,0.02,open2300-1.11,2011-09-16 06:18:00,
2011-09-16 00:35:00,58.8,49.5,29.96,East,90,3.8,3.8,71,0.00,,,0.02,open2300-1.11,2011-09-16 06:35:00,
2011-09-16 00:48:00,58.6,48.9,29.96,East,90,8.7,8.7,70,0.00,,,0.02,open2300-1.11,2011-09-16 06:48:00,
2011-09-16 01:03:00,58.6,48.9,29.96,NE,45,3.8,8.7,70,0.00,,,0.02,open2300-1.11,2011-09-16 07:03:00,
2011-09-16 01:18:00,58.3,48.9,29.97,ENE,67,2.2,5.8,71,0.00,,,0.02,open2300-1.11,2011-09-16 07:18:00,
2011-09-16 01:33:00,58.1,48.7,29.97,NE,45,3.6,5.8,71,0.00,,,0.02,open2300-1.11,2011-09-16 07:33:00,
2011-09-16 01:48:00,57.9,48.9,29.98,East,90,0.0,5.1,72,0.00,,,0.02,open2300-1.11,2011-09-16 07:48:00,
2011-09-16 02:03:00,57.7,48.7,29.97,ENE,67,6.3,6.3,72,0.00,,,0.02,open2300-1.11,2011-09-16 08:03:00,
2011-09-16 02:18:00,57.6,48.6,29.97,East,90,0.0,8.9,72,0.00,,,0.02,open2300-1.11,2011-09-16 08:18:00,
2011-09-16 02:33:00,57.4,48.7,29.98,East,90,5.6,6.3,73,0.00,,,0.02,open2300-1.11,2011-09-16 08:33:00,
2011-09-16 02:48:00,57.2,48.9,29.97,East,90,2.7,8.5,74,0.00,,,0.02,open2300-1.11,2011-09-16 08:48:00,
2011-09-16 03:03:00,57.0,48.7,29.98,East,90,0.0,6.3,74,0.00,,,0.02,open2300-1.11,2011-09-16 09:03:00,
2011-09-16 03:18:00,57.0,48.7,29.98,East,90,0.0,8.1,74,0.00,,,0.02,open2300-1.11,2011-09-16 09:18:00,
2011-09-16 03:33:00,56.8,48.9,29.98,East,90,0.0,7.2,75,0.00,,,0.02,open2300-1.11,2011-09-16 09:33:00,
2011-09-16 03:48:00,56.8,49.3,29.97,East,90,6.0,9.6,76,0.00,,,0.02,open2300-1.11,2011-09-16 09:48:00,
2011-09-16 04:03:00,56.8,49.3,29.97,East,90,5.8,6.0,76,0.00,,,0.02,open2300-1.11,2011-09-16 10:03:00,
2011-09-16 04:18:00,56.7,49.1,29.97,East,90,2.9,7.8,76,0.00,,,0.02,open2300-1.11,2011-09-16 10:18:00,
2011-09-16 04:33:00,56.5,48.9,29.97,East,90,0.0,2.9,76,0.00,,,0.02,open2300-1.11,2011-09-16 10:33:00,
2011-09-16 04:48:00,56.1,48.6,29.97,SSE,157,0.0,0.0,76,0.00,,,0.02,open2300-1.11,2011-09-16 10:48:00,
2011-09-16 05:03:00,56.1,48.6,29.98,East,90,1.6,1.6,76,0.00,,,0.02,open2300-1.11,2011-09-16 11:03:00,
2011-09-16 05:18:00,56.1,48.6,29.98,ENE,67,0.0,2.7,76,0.00,,,0.02,open2300-1.11,2011-09-16 11:18:00,
2011-09-16 05:33:00,56.1,48.9,29.98,ENE,67,0.0,2.0,77,0.00,,,0.02,open2300-1.11,2011-09-16 11:33:00,
2011-09-16 05:48:00,55.9,48.8,29.98,SE,135,0.0,6.3,77,0.00,,,0.02,open2300-1.11,2011-09-16 11:48:00,
2011-09-16 06:03:00,55.9,49.1,29.98,East,90,0.0,4.2,78,0.00,,,0.02,open2300-1.11,2011-09-16 12:03:00,
2011-09-16 06:18:00,55.8,48.6,29.98,East,90,0.0,0.0,77,0.00,,,0.02,open2300-1.11,2011-09-16 12:18:00,
2011-09-16 06:33:00,55.8,48.6,29.98,East,90,0.0,0.0,77,0.00,,,0.02,open2300-1.11,2011-09-16 12:33:00,
2011-09-16 06:48:00,55.6,48.4,29.98,East,90,0.0,0.0,77,0.00,,,0.02,open2300-1.11,2011-09-16 12:48:00,
2011-09-16 07:03:00,55.2,48.4,29.98,East,90,0.0,0.0,78,0.00,,,0.02,open2300-1.11,2011-09-16 13:03:00,
2011-09-16 07:18:00,55.2,48.4,29.99,SSE,157,0.0,0.0,78,0.00,,,0.02,open2300-1.11,2011-09-16 13:18:00,
2011-09-16 07:33:00,55.0,48.2,29.99,SSE,157,0.0,0.0,78,0.00,,,0.02,open2300-1.11,2011-09-16 13:33:00,
2011-09-16 07:48:00,55.0,48.6,30.00,East,90,0.0,0.0,79,0.00,,,0.02,open2300-1.11,2011-09-16 13:48:00,
2011-09-16 08:03:00,55.2,48.8,30.00,SSE,157,0.0,4.9,79,0.00,,,0.02,open2300-1.11,2011-09-16 14:03:00,
2011-09-16 08:18:00,55.6,49.1,30.00,East,90,0.0,0.0,79,0.00,,,0.02,open2300-1.11,2011-09-16 14:18:00,
2011-09-16 08:33:00,55.9,49.8,30.01,East,90,0.0,0.0,80,0.00,,,0.02,open2300-1.11,2011-09-16 14:33:00,
2011-09-16 08:48:00,56.8,50.4,30.01,South,180,0.0,0.0,79,0.00,,,0.02,open2300-1.11,2011-09-16 14:48:00,
2011-09-16 09:03:00,57.4,50.9,30.01,SE,135,0.0,0.0,79,0.00,,,0.02,open2300-1.11,2011-09-16 15:03:00,
2011-09-16 09:18:00,57.9,51.1,30.01,ESE,112,0.0,0.0,78,0.00,,,0.02,open2300-1.11,2011-09-16 15:18:00,
2011-09-16 09:33:00,58.6,51.8,30.02,East,90,2.0,2.0,78,0.00,,,0.02,open2300-1.11,2011-09-16 15:33:00,
2011-09-16 09:48:00,59.4,52.5,30.01,ENE,67,0.0,3.4,78,0.00,,,0.02,open2300-1.11,2011-09-16 15:48:00,
2011-09-16 10:03:00,60.1,52.5,30.01,ENE,67,0.0,0.0,76,0.00,,,0.02,open2300-1.11,2011-09-16 16:03:00,
2011-09-16 10:18:00,60.4,52.9,30.02,ESE,112,0.0,0.0,76,0.00,,,0.02,open2300-1.11,2011-09-16 16:18:00,
2011-09-16 10:33:00,60.8,52.9,30.02,SSE,157,0.0,0.0,75,0.00,,,0.02,open2300-1.11,2011-09-16 16:33:00,
2011-09-16 10:48:00,61.3,53.4,30.01,SSE,157,0.0,0.0,75,0.00,,,0.02,open2300-1.11,2011-09-16 16:48:00,
2011-09-16 11:03:00,61.9,53.5,30.01,NE,45,0.0,0.0,74,0.00,,,0.02,open2300-1.11,2011-09-16 17:03:00,
2011-09-16 11:18:00,62.2,53.5,30.01,NE,45,0.0,0.0,73,0.00,,,0.02,open2300-1.11,2011-09-16 17:18:00,
2011-09-16 11:33:00,62.4,53.3,30.01,WNW,292,0.0,0.0,72,0.00,,,0.02,open2300-1.11,2011-09-16 17:33:00,
2011-09-16 11:48:00,63.3,54.1,30.00,SW,225,0.0,1.1,72,0.00,,,0.02,open2300-1.11,2011-09-16 17:48:00,
2011-09-16 12:03:00,64.2,54.7,30.01,WNW,292,0.0,0.0,71,0.00,,,0.02,open2300-1.11,2011-09-16 18:03:00,
2011-09-16 12:18:00,65.3,54.9,30.00,WNW,292,0.0,1.3,69,0.00,,,0.02,open2300-1.11,2011-09-16 18:18:00,
2011-09-16 12:33:00,66.4,55.0,30.00,NNW,337,0.0,0.0,67,0.00,,,0.02,open2300-1.11,2011-09-16 18:33:00,
2011-09-16 12:48:00,67.1,55.3,29.99,WNW,292,0.0,0.0,66,0.00,,,0.02,open2300-1.11,2011-09-16 18:48:00,
2011-09-16 13:03:00,67.6,55.0,29.98,West,270,0.0,2.0,64,0.00,,,0.02,open2300-1.11,2011-09-16 19:03:00,
2011-09-16 13:18:00,68.2,55.1,29.98,WNW,292,3.8,3.8,63,0.00,,,0.02,open2300-1.11,2011-09-16 19:18:00,
2011-09-16 13:33:00,68.9,54.5,29.97,West,270,0.0,3.8,60,0.00,,,0.02,open2300-1.11,2011-09-16 19:33:00,
2011-09-16 13:48:00,69.4,54.5,29.97,NNW,337,0.0,4.2,59,0.00,,,0.02,open2300-1.11,2011-09-16 19:48:00,
2011-09-16 14:03:00,70.0,54.5,29.96,WNW,292,2.9,3.8,58,0.00,,,0.02,open2300-1.11,2011-09-16 20:03:00,
2011-09-16 14:18:00,70.3,53.9,29.96,WNW,292,0.0,2.9,56,0.00,,,0.02,open2300-1.11,2011-09-16 20:18:00,
2011-09-16 14:33:00,70.5,54.0,29.95,WNW,292,4.7,4.7,56,0.00,,,0.02,open2300-1.11,2011-09-16 20:33:00,
2011-09-16 14:48:00,71.2,53.7,29.94,SW,225,0.0,4.7,54,0.00,,,0.02,open2300-1.11,2011-09-16 20:48:00,
2011-09-16 15:03:00,72.1,53.5,29.94,WSW,247,0.4,1.3,52,0.00,,,0.00,open2300-1.11,2011-09-16 21:03:00,
2011-09-16 15:18:00,72.0,52.8,29.94,WNW,292,0.0,2.9,51,0.00,,,0.00,open2300-1.11,2011-09-16 21:18:00,
2011-09-16 15:33:00,72.1,53.0,29.94,NW,315,0.0,1.3,51,0.00,,,0.00,open2300-1.11,2011-09-16 21:33:00,
2011-09-16 15:48:00,71.8,52.1,29.93,NNW,337,0.0,0.0,50,0.00,,,0.00,open2300-1.11,2011-09-16 21:48:00,
2011-09-16 16:04:00,71.8,52.1,29.93,WSW,247,0.0,0.0,50,0.00,,,0.00,open2300-1.11,2011-09-16 22:04:00,
2011-09-16 16:18:00,71.6,52.0,29.93,SW,225,0.0,2.7,50,0.00,,,0.00,open2300-1.11,2011-09-16 22:18:00,
2011-09-16 16:33:00,70.5,51.5,29.92,SW,225,0.0,3.6,51,0.00,,,0.00,open2300-1.11,2011-09-16 22:33:00,
2011-09-16 16:48:00,70.0,50.5,29.93,WSW,247,0.0,1.3,50,0.00,,,0.00,open2300-1.11,2011-09-16 22:48:00,
2011-09-16 17:03:00,71.8,52.1,29.92,SW,225,3.4,3.4,50,0.00,,,0.00,open2300-1.11,2011-09-16 23:03:00,
2011-09-16 17:18:00,75.0,53.4,29.93,WSW,247,2.2,5.1,47,0.00,,,0.00,open2300-1.11,2011-09-16 23:18:00,
2011-09-16 17:33:00,78.1,53.1,29.93,NW,315,2.0,4.9,42,0.00,,,0.00,open2300-1.11,2011-09-16 23:33:00,
2011-09-16 17:48:00,76.1,51.3,29.93,WNW,292,0.0,2.0,42,0.00,,,0.00,open2300-1.11,2011-09-16 23:48:00,
2011-09-16 18:03:00,72.3,50.2,29.93,NW,315,0.0,0.0,46,0.00,,,0.00,open2300-1.11,2011-09-17 00:03:00,
2011-09-16 18:18:00,70.5,49.8,29.94,WSW,247,0.0,0.0,48,0.00,,,0.00,open2300-1.11,2011-09-17 00:18:00,
2011-09-16 18:33:00,70.0,49.3,29.93,WNW,292,0.0,3.1,48,0.00,,,0.00,open2300-1.11,2011-09-17 00:33:00,
2011-09-16 18:48:00,69.4,49.4,29.93,NW,315,0.0,4.0,49,0.00,,,0.00,open2300-1.11,2011-09-17 00:48:00,
2011-09-16 19:03:00,68.7,49.4,29.93,NW,315,0.0,0.0,50,0.00,,,0.00,open2300-1.11,2011-09-17 01:03:00,
2011-09-16 19:18:00,67.8,49.5,29.94,NW,315,0.0,0.0,52,0.00,,,0.00,open2300-1.11,2011-09-17 01:18:00,
2011-09-16 19:33:00,66.9,49.7,29.93,NW,315,0.0,0.0,54,0.00,,,0.00,open2300-1.11,2011-09-17 01:33:00,
2011-09-16 19:48:00,66.0,49.9,29.94,NW,315,0.0,0.0,56,0.00,,,0.00,open2300-1.11,2011-09-17 01:48:00,
2011-09-16 20:03:00,65.5,49.8,29.94,NW,315,0.0,0.0,57,0.00,,,0.00,open2300-1.11,2011-09-17 02:03:00,
2011-09-16 20:18:00,64.9,49.8,29.93,NW,315,0.0,0.0,58,0.00,,,0.00,open2300-1.11,2011-09-17 02:18:00,
2011-09-16 20:33:00,64.2,49.0,29.94,East,90,0.0,0.0,58,0.00,,,0.00,open2300-1.11,2011-09-17 02:33:00,
2011-09-16 20:48:00,64.0,49.4,29.94,East,90,0.0,0.0,59,0.00,,,0.00,open2300-1.11,2011-09-17 02:48:00,
2011-09-16 21:03:00,63.5,49.4,29.95,ENE,67,0.0,0.0,60,0.00,,,0.00,open2300-1.11,2011-09-17 03:03:00,
2011-09-16 21:18:00,62.8,49.1,29.95,ENE,67,0.0,0.0,61,0.00,,,0.00,open2300-1.11,2011-09-17 03:18:00,
2011-09-16 21:33:00,62.4,49.2,29.96,ENE,67,0.0,0.0,62,0.00,,,0.00,open2300-1.11,2011-09-17 03:33:00,
2011-09-16 21:48:00,61.9,48.7,29.96,ENE,67,0.0,0.0,62,0.00,,,0.00,open2300-1.11,2011-09-17 03:48:00,
2011-09-16 22:03:00,61.7,48.6,29.97,East,90,0.0,0.0,62,0.00,,,0.00,open2300-1.11,2011-09-17 04:03:00,
2011-09-16 22:18:00,61.2,49.3,30.02,WNW,292,0.0,6.0,65,0.08,,,0.08,open2300-1.11,2011-09-17 04:18:00,
2011-09-16 22:33:00,59.2,49.0,30.04,SW,225,0.0,7.2,69,0.18,,,0.18,open2300-1.11,2011-09-17 04:33:00,
2011-09-16 22:48:00,58.5,49.5,30.04,West,270,0.0,0.0,72,0.24,,,0.24,open2300-1.11,2011-09-17 04:48:00,
2011-09-16 23:03:00,58.1,49.5,30.03,SW,225,0.0,0.0,73,0.26,,,0.26,open2300-1.11,2011-09-17 05:03:00,
2011-09-16 23:18:00,57.9,49.6,30.02,SW,225,0.0,0.0,74,0.12,,,0.29,open2300-1.11,2011-09-17 05:18:00,
2011-09-16 23:33:00,57.9,49.6,30.01,SW,225,0.0,0.0,74,0.12,,,0.31,open2300-1.11,2011-09-17 05:33:00,
2011-09-16 23:49:00,57.7,50.2,30.01,East,90,0.0,3.6,76,0.06,,,0.31,open2300-1.11,2011-09-17 05:49:00,